Find Asiasat 5

NORAD ID: 35696 Int'l Des: 2009-042 Owner: ASIA Country: HK operational
HEOCIRCULARGSOGEO

Live-Position

3D-Globus wird geladen...

Über Asiasat 5

Beschreibung wird geladen...

Nächste Überflüge

Passes for default location (London). Set your location on the main map for personalized predictions.

Höhenverlauf

Loading altitude history...

Zweizeiliger Elementsatz

1 35696U 09042A 26131.91470417 -.00000295 00000-0 00000-0 0 9997
2 35696 0.0124 117.5390 0001605 282.3779 259.5820 1.00270598 61341
Epoch: 11. Mai 2026 • Age: 6 hours

Aktueller Status

Höhe 35779.7 km
Geschwindigkeit 3.08 km/s
Subsatellitenpunkt -0.00°S, 100.49°E
Startdatum 11. Aug. 2009
Alter 16.7 years
Typ other

Technische Details

Klassifizierung Payload
Masse 3760.00 kg
Trockenmasse 2000.00 kg
Gesamtmasse 3760.00 kg
Länge 5.60 m
Durchmesser 2.80 m
Spannweite 31.00 m
Form Box + 2 Pan
Hersteller LOR
Bus-Typ SSL-1300
Phasenstatus In Orbit
Besitzer/Staat ASIA/HK

Most Searched